Home > Weather > Prague > Past weeks

Flag for Czech Republic Weather for the Past 2 Weeks in Prague, Czech Republic

Now
36 °F

Passing clouds.


Feels Like: 26 °F
Forecast: 31 / 42 °F
Wind: 16 mph from Southwest

Location: Prague Ruzyne Airport

Current Time: Feb 11, 2016 at 1:52:06 AM

Latest Report: Feb 11, 2016 at 1:00 AM


Visibility: N/A

Pressure: 29.47 "Hg

Humidity: 87%

Dew point: 32 °F

Location of PragueLocation

Historic Weather in Prague — Graph

°F

Prague Temperature Yesterday

Maximum temperature yesterday: 45 °F (at 12:00 AM)
Minimum temperature yesterday: 36 °F (at 7:00 PM)
Average temperature yesterday: 39 °F

High & Low Weather Summary for the Past Weeks

 TemperatureHumidityPressure
High54 °F (Jan 27, 1:30 PM)100% (Feb 1, 9:30 AM)30.30 "Hg (Feb 1, 9:30 AM)
Low32 °F (Jan 31, 8:00 AM)47% (Feb 8, 1:30 PM)29.18 "Hg (Feb 9, 9:00 PM)
Average42 °F76%29.92 "Hg
* Reported Midnight between Jan 26 and Jan 27 — Midnight between Feb 10 and Feb 11, Prague, Weather by CustomWeather, © 2016

Note: Actual official high and low records may vary slightly from our data, if they occured in-between our weather recording intervals... More about our weather records

Advertising

Prague Weather History for the Previous 24 Hours

 ConditionsComfort  
Time TempWeatherWind HumidityBarometerVisibility
12:00 AM
Thu, Feb 11
36 °FPassing clouds.14 mph87%29.45 "HgN/A
11:00 PM
Wed, Feb 10
36 °FPassing clouds.14 mph87%29.45 "HgN/A
10:00 PM36 °FLight rain. Passing clouds.14 mph87%29.42 "HgN/A
9:30 PM36 °FLight rain. Passing clouds.15 mph81%29.42 "HgN/A
9:00 PM36 °FPassing clouds.12 mph81%29.42 "HgN/A
8:30 PM36 °FClear.16 mph81%29.42 "Hg10 mi
8:00 PM36 °FClear.15 mph81%29.42 "Hg10 mi
7:30 PM37 °FClear.15 mph75%29.39 "Hg10 mi
7:00 PM36 °FClear.13 mph75%29.39 "Hg10 mi
6:30 PM37 °FPassing clouds.13 mph70%29.39 "HgN/A
6:00 PM37 °FPassing clouds.18 mph70%29.39 "HgN/A
5:30 PM39 °FPassing clouds.13 mph65%29.39 "HgN/A
5:00 PM39 °FPartly sunny.13 mph61%29.39 "HgN/A
4:30 PM39 °FPartly sunny.14 mph61%29.39 "HgN/A
4:00 PM39 °FPartly sunny.18 mph61%29.36 "HgN/A
3:30 PM39 °FPartly sunny.18 mph61%29.36 "HgN/A
3:00 PM41 °FScattered clouds.17 mph57%29.36 "HgN/A
2:30 PM41 °FScattered clouds.21 mph57%29.36 "HgN/A
2:00 PM41 °FScattered clouds.18 mph57%29.36 "HgN/A
1:30 PM41 °FScattered clouds.18 mph61%29.36 "HgN/A
1:00 PM41 °FPassing clouds.20 mph61%29.36 "HgN/A
12:30 PM39 °FPassing clouds.17 mph65%29.36 "HgN/A
12:00 PM39 °FPassing clouds.17 mph65%29.36 "HgN/A
11:30 AM39 °FPassing clouds.16 mph65%29.36 "HgN/A
11:00 AM39 °FBroken clouds.17 mph70%29.36 "HgN/A
10:30 AM39 °FBroken clouds.14 mph75%29.36 "HgN/A
10:00 AM39 °FPartly sunny.12 mph75%29.36 "HgN/A
9:30 AM37 °FPartly sunny.9 mph81%29.33 "HgN/A
9:00 AM37 °FPartly sunny.7 mph81%29.33 "HgN/A
8:30 AM37 °FPassing clouds.8 mph75%29.33 "HgN/A
8:00 AM37 °FPartly sunny.9 mph75%29.30 "HgN/A
7:30 AM37 °FPartly sunny.9 mph75%29.30 "HgN/A
7:00 AM37 °FPassing clouds.12 mph75%29.30 "HgN/A
6:30 AM37 °FPassing clouds.12 mph81%29.30 "HgN/A
6:00 AM37 °FPassing clouds.10 mph81%29.30 "HgN/A
5:30 AM39 °FPassing clouds.9 mph75%29.27 "HgN/A
5:00 AM39 °FPassing clouds.10 mph75%29.27 "HgN/A
4:00 AM41 °FPassing clouds.10 mph70%29.27 "HgN/A
3:30 AM41 °FClear.15 mph70%29.27 "Hg10 mi
3:00 AM41 °FPassing clouds.17 mph76%29.27 "HgN/A
2:30 AM43 °FLight rain. Passing clouds.21 mph71%29.24 "HgN/A
2:00 AM43 °FPassing clouds.20 mph76%29.24 "HgN/A
1:30 AM45 °FPassing clouds.23 mph71%29.21 "HgN/A
1:00 AM45 °FClear.24 mph76%29.21 "Hg10 mi
Weather by CustomWeather, © 2016

See weather overviewHow to use our weather pages